Terminal Aerodrome Forecast
Issued by NWS Austin/San Antonio, TX

Home | Current Version | Previous Version | Text Only | Print | Product List | Glossary On
Versions: 1 2 3 4 5 6 7 8 9 10 11 12 13 14 15 16 17 18 19 20 21 22 23 24 25 26 27
330
FTUS44 KEWX 300702 AAA
TAFDRT
TAF AMD
KDRT 300702Z 3007/3106 32007KT P6SM FEW150
     FM302000 16007KT P6SM SKC=

USA.gov is the U.S. government's official web portal to all federal, state and local government web resources and services.